SL-18 DEB, 22599

Orbit data source: Space-Track

SL-18 DEB, 22599 is space debris in LEO originally from a launch on Thu, 25 Mar 1993 UTC launched from the Plesetsk Missile And Space Complex (PKMTR). Debris objects in space refer to the collection of defunct objects orbiting the Earth. Examples of debris include non-operational satellites, rocket bodies, and fragments generated from explosions, collisions, or faulty payload assembly.

Loading next visibility...
Identifier
22599, 1993-014E
Orbit
LEO
Country
Flag of CISCIS
Related business
Manufacturer
Kompleks-MIT
Mission
Spacecraft
Bus & Motor
Unknown
Mass
Unknown
Launch date (UTC)
1993-03-25 (33 years ago)
Launch vehicle
Unknown
Launch site
Plesetsk Missile And Space Complex (PKMTR)
Object type
Payload
Rocket body
Debris
Shape & HBR
Unknown shape, 0.1 m
Radar Cross Section
Medium (>0.1 m² and <1 m²)

Expand to show TLE details & history
Last TLE update: 2 days ago

TLE from 2 days ago
0 SL-18 DEB
1 22599U 93014E   26171.36179002  .00000967  00000-0  21224-3 0  9995
2 22599  75.7520 311.0949 0123917 300.5521  58.3468 14.53797767740114
Epoch: 2026-06-20T08:40Z
TLE epoch observation values (Epoch: 2026-06-20T08:40:58.657Z)
Latitude
-0.00008°
Longitude
-87.72703°
Altitude
670.673 km
Speed
7.546 km/s
True Right ascension
20h 44m 22s
True Declination
0° 00' 00"
Sunlit
Object was in full shadow at epoch
Visualization orbit readout
Latitude
Unknown
Longitude
Unknown
Altitude
Unknown
Speed
Unknown
Apparent Right ascension
Unknown
Apparent Declination
Unknown
Sunlit
N/A
Visualization observer readout
Local Sidereal Time
00:50:53
Azimuth
Unknown
Elevation
Unknown
Doppler factor
Unknown
Orbital elements
Apogee altitude
798.578 km
Perigee altitude
622.892 km
Semi-major axis
7,088.872 km
Eccentricity
0.01239
Inclination
75.752°
RAAN
311.0949°
Arg. of periapsis
300.5521°
True anomaly
59.56536°
Mean anomaly
58.3468°
Eccentric anomaly
58.9551°
Mean motion
3.63645 °/min
Orbital period
99 mins
BSTAR
0.00021224
Loading maneuver chart data...
Computing Atmospheric mass density...

Documentation

Showing up to 5 results
|